#timestamp,LO_Frequency,Hit 
1503036015.8,286047001.0,N
1503036035.6,286047000.6,N
1503036055.4,286046999.8,N
1503036075.3,286047002.1,N
1503036095.1,286047002.6,N
1503036096.0,286047002.6,N
1503036115.8,286046998.9,N
1503036135.7,286046998.1,N
1503036155.5,286046997.3,N
1503036175.3,286046997.2,N
1503036195.2,286046999.1,N
1503036215.9,286046997.4,N
1503036235.7,286046998.1,N
1503036255.5,286046998.4,N
1503036275.4,286046997.3,N
1503036295.2,286046997.4,N
1503036315.0,286047004.4,N
1503036315.9,286047004.4,N
1503036335.8,286047004.4,N
1503036355.6,286047001.6,N
1503036375.4,286046999.7,N
1503036395.3,286047000.9,N
1503036415.1,286047001.2,N
1503036416.0,286047001.2,N
1503036435.8,286046998.6,N
1503036455.7,286047002.3,N
1503036475.5,286047002.8,N
1503036495.3,286047003.6,N
1503036515.2,286047005.6,N
1503036535.9,286047005.5,N
1503036555.7,286047004.9,N
1503036575.6,286047010.7,P
1503036595.4,286047010.0,N
1503036615.2,286047009.4,N
1503036635.1,286047011.3,N
1503036636.0,286047011.3,N
1503036655.8,286047008.0,N
1503036675.6,286047009.9,N
1503036695.5,286047011.6,P
1503036715.3,286047002.8,N
1503036735.1,286047000.9,N
1503036755.9,286047000.8,N
1503036775.7,286046998.1,N
1503036795.5,286047005.6,N
1503036815.3,286047006.3,N
1503036835.2,286047007.8,N
1503036855.0,286047005.1,N
1503036855.9,286047005.1,N
1503036875.7,286047007.9,N
1503036895.6,286047008.0,N
1503036915.4,286047011.7,P
1503036935.2,286047006.2,N
1503036955.1,286047002.0,N
1503036956.0,286047002.0,N
1503036975.8,286046998.8,N
1503036995.6,286046998.3,N
1503037015.5,286047001.9,N
1503037035.3,286047001.1,N
1503037055.1,286046999.4,N
1503037075.9,286046998.4,N
1503037095.7,286046997.2,N
1503037115.5,286046993.7,N
1503037135.4,286046994.3,N
1503037155.2,286046993.8,N
1503037175.0,286046993.6,N
1503037175.9,286046993.6,N
1503037195.8,286046993.9,N
1503037215.6,286046996.1,N
1503037235.4,286046995.4,N
1503037255.2,286046998.0,N
1503037275.1,286046996.0,N
1503037276.0,286046996.0,N
1503037295.8,286046995.4,N
1503037315.6,286046999.2,N
1503037335.5,286046997.7,N
1503037355.3,286046995.3,N
1503037375.1,286046995.6,N
1503037395.9,286046995.6,N
1503037415.7,286046995.6,N
1503037435.5,286046995.9,N
1503037455.4,286046997.8,N
1503037475.2,286046996.3,N
1503037495.0,286046995.8,N
1503037495.9,286046995.8,N
1503037515.7,286046995.5,N
1503037535.6,286046993.7,P
1503037555.4,286046997.1,N
1503037575.3,286046997.2,N
1503037595.1,286046998.4,N
1503037596.0,286046998.4,N
1503037615.8,286047001.1,N
1503037635.7,286047000.7,N
1503037655.5,286047000.0,N
1503037675.3,286047000.2,N
1503037695.1,286047002.6,N
1503037715.9,286047001.6,N
1503037735.7,286047000.1,N
1503037755.5,286047003.9,N
1503037775.4,286047002.0,N
1503037795.2,286047000.9,N
1503037815.0,286047001.0,N
1503037815.9,286047001.0,N
1503037835.8,286046998.1,N
1503037855.6,286047000.2,N
1503037875.4,286047002.8,N
1503037895.3,286046998.2,N
1503037915.1,286047001.0,N
1503037916.0,286047001.0,N
1503037935.8,286046998.7,N
1503037955.6,286046999.3,N
1503037975.5,286046998.6,N
1503037995.3,286046997.4,N
1503038015.1,286046997.2,N
1503038035.9,286046995.8,N
1503038055.7,286046996.8,N
1503038075.5,286046997.7,N
1503038095.4,286046994.9,N
1503038115.2,286046997.3,N
1503038135.0,286046995.0,N
1503038135.9,286046995.0,N
1503038155.8,286046995.2,N
1503038175.6,286046995.9,N
1503038195.4,286046999.5,N
1503038215.3,286047000.6,N
1503038235.1,286047002.8,N
1503038236.0,286047002.8,N
1503038255.8,286046999.7,N
1503038275.7,286047002.8,N
1503038295.5,286047000.6,N
1503038315.3,286046998.3,N
1503038335.1,286047000.9,N
1503038355.9,286046998.6,N
1503038375.7,286046998.0,N
1503038395.5,286046995.4,N
1503038415.4,286046996.1,N
1503038435.2,286046997.3,N
1503038455.0,286046997.2,N
1503038455.9,286046997.2,N
1503038475.8,286046999.4,N
1503038495.6,286046999.6,N
1503038515.4,286046998.3,N
1503038535.3,286046998.1,N
1503038555.1,286047001.0,N
1503038556.0,286047001.0,N
1503038575.8,286046999.3,N
1503038595.7,286046998.3,N
1503038615.5,286046997.0,N
1503038635.3,286046996.7,N
1503038655.2,286046996.8,N
1503038675.9,286046999.3,N
1503038695.7,286046997.4,N
1503038715.6,286046993.4,P
1503038735.4,286046994.8,N
1503038755.2,286046996.1,N
1503038775.0,286046996.2,N
1503038776.0,286046996.2,N
1503038795.8,286046995.4,N
1503038815.6,286046995.6,N
1503038835.5,286046995.4,P
1503038855.3,286047000.3,N
1503038875.1,286046998.1,N
1503038895.9,286046998.4,N
1503038915.7,286046996.7,N
1503038935.5,286046997.0,N
1503038955.3,286046997.5,N
1503038975.2,286046997.9,N
1503038995.9,286046996.5,N
1503039015.7,286046995.7,P
1503039035.6,286046996.6,P
1503039055.4,286046997.2,P
1503039075.2,286046999.3,N
1503039095.1,286046999.3,N
1503039096.0,286046999.3,N
1503039115.8,286047000.6,N
1503039135.6,286047001.1,N
1503039155.5,286047000.9,N
1503039175.3,286046999.4,N
1503039195.1,286046999.0,N
1503039215.9,286046996.5,N
1503039235.7,286046996.5,N
1503039255.5,286046998.0,N
1503039275.4,286046999.6,N
1503039295.2,286047000.6,N
1503039315.0,286047000.2,N
1503039315.9,286047000.2,N
1503039335.7,286046996.6,N
1503039355.6,286046997.0,N
1503039375.4,286046997.5,N
1503039395.2,286046998.0,N
1503039415.1,286046997.5,N
1503039416.0,286046997.5,N
1503039435.8,286046997.7,N
1503039455.6,286046993.5,P
1503039475.5,286046995.8,N
1503039495.3,286046999.2,N
1503039515.1,286046997.7,N
1503039535.9,286046997.3,N
1503039555.7,286047001.2,N
1503039575.5,286047001.2,N
1503039595.4,286047000.0,N
